This demonstration page uses our WeatherBlox Daily Observations layout. Learn more.

Left ArrowRight Arrow

39.08367, -84.50855

Hourly Observations for September 4, 2017

Temp ( °F °C ) Dew Point ( °F °C ) Humidity (%) Winds ( mph kmh ) Pressure ( in mb ) Visibility ( mi km ) Precip ( " mm )
12:14 am 00:14 Clear with Mist and Fog 59 15 59 15 100 100 N N/A 30.00 1016 2 3 N/A
12:41 am 00:41 Clear with Fog 59 15 59 15 100 100 N N/A 30.00 1016 1 1 N/A
12:49 am 00:49 Clear with Mist and Fog 59 15 59 15 100 100 N N/A 30.00 1016 2 3 N/A
12:53 am 00:53 Clear with Mist and Fog 59 15 59 15 100 100 N N/A 30.03 1017 3 4 N/A
1:00 am 01:00 Clear with Mist and Fog 58 14.4 58 14.4 100 100 N N/A 30.03 1017 1 1 N/A
1:19 am 01:19 Clear with Mist and Fog 58 14.4 58 14.4 100 100 N N/A 30.03 1017 1 2 N/A
1:30 am 01:30 Mostly Cloudy with Mist and Fog 58 14.4 58 14.4 100 100 N N/A 30.03 1017 1 1 N/A
1:53 am 01:53 Mostly Cloudy with Fog 58 14.4 58 14.4 100 100 N N/A 30.02 1017 1 1 N/A
2:02 am 02:02 Mostly Cloudy with Fog 58 14.4 58 14.4 100 100 N N/A 30.03 1017 0 0 N/A
2:53 am 02:53 Mostly Cloudy with Fog 59 15 59 15 100 100 N N/A 30.01 1016 0 0 N/A
3:53 am 03:53 Mostly Cloudy with Fog 60 15.6 60 15.6 100 100 N N/A 30.00 1016 0 0 N/A
4:53 am 04:53 Mostly Cloudy with Fog 60 15.6 60 15.6 100 100 N N/A 29.99 1016 0 0 N/A
5:53 am 05:53 Mostly Cloudy with Fog 60 15.6 60 15.6 100 100 N N/A 29.99 1016 0 0 N/A
6:53 am 06:53 Mostly Cloudy with Fog 59 15 59 15 100 100 N N/A 29.99 1016 0 0 N/A
7:53 am 07:53 Partly Cloudy with Mist and Fog 60 15.6 60 15.6 100 100 N N/A 29.99 1016 3 5 N/A
8:53 am 08:53 Sunny with Mist and Fog 67 19.4 66 18.9 97 97 N N/A 29.98 1015 5 8 N/A
9:53 am 09:53 Sunny 73 22.8 69 20.6 87 87 S 9 15 29.97 1015 10 16 N/A
10:53 am 10:53 Sunny 77 25 69 20.6 77 77 SSW 12 19 29.96 1014 10 16 N/A
11:53 am 11:53 Sunny 81 27.2 70 21.1 69 69 SSW 14 22 29.93 1014 10 16 N/A
12:53 pm 12:53 Mostly Sunny 83 28.3 70 21.1 65 65 SW 15 24 29.91 1013 10 16 N/A
1:53 pm 13:53 Mostly Cloudy 84 28.9 69 20.6 61 61 SW 21 33 29.90 1012 10 16 N/A
2:53 pm 14:53 Mostly Cloudy 85 29.4 69 20.6 59 59 SW 17 28 29.86 1011 10 16 N/A
3:53 pm 15:53 Mostly Cloudy 86 30 70 21.1 59 59 SW 16 26 29.85 1011 10 16 N/A
4:53 pm 16:53 Mostly Cloudy 84 28.9 70 21.1 63 63 SSW 18 30 29.83 1010 10 16 N/A
5:53 pm 17:53 Mostly Sunny 84 28.9 69 20.6 61 61 SSW 17 28 29.82 1010 10 16 N/A
6:53 pm 18:53 Sunny 82 27.8 69 20.6 65 65 SSW 14 22 29.80 1009 10 16 N/A
7:53 pm 19:53 Sunny 80 26.7 68 20 67 67 SSW 14 22 29.79 1009 10 16 N/A
8:53 pm 20:53 Mostly Clear 78 25.6 68 20 71 71 SSW 13 20 29.82 1010 10 16 N/A
9:53 pm 21:53 Clear 76 24.4 68 20 77 77 SSW 10 17 29.81 1009 10 16 N/A
10:53 pm 22:53 Clear 76 24.4 67 19.4 74 74 SSW 16 26 29.79 1009 10 16 N/A
11:53 pm 23:53 Partly Cloudy 76 24.4 67 19.4 74 74 SSW 12 19 29.80 1009 10 16 N/A

Powered by AerisWeather